This demonstration page uses our WeatherBlox Daily Observations layout. Learn more.

Left ArrowRight Arrow

39.01783, -85.05884

Hourly Observations for August 25, 2021

Temp ( °F °C ) Dew Point ( °F °C ) Humidity (%) Winds ( mph kmh ) Pressure ( in mb ) Visibility ( mi km ) Precip ( " mm )
12:52 am 00:52 Clear 78 25.6 69 20.6 74 74 SSW 5 7 30.04 1017 10 16 0.00 0.00
1:52 am 01:52 Clear 79 26.1 69 20.6 72 72 WSW 3 6 30.06 1018 10 16 0.00 0.00
2:52 am 02:52 Clear 78 25.6 70 21.1 76 76 WSW 5 7 30.05 1018 10 16 0.00 0.00
3:52 am 03:52 Mostly Clear 75 23.9 70 21.1 84 84 SW 3 6 30.06 1018 9 14 0.00 0.00
4:52 am 04:52 Mostly Clear 74 23.3 70 21.1 88 88 SSW 3 6 30.06 1018 7 11 0.00 0.00
5:52 am 05:52 Partly Cloudy 73 22.8 70 21.1 90 90 S 5 7 30.04 1017 7 11 0.00 0.00
6:52 am 06:52 Partly Cloudy 76 24.4 70 21.1 82 82 SSW 3 6 30.05 1018 8 13 0.00 0.00
7:52 am 07:52 Mostly Cloudy 77 25 71 21.7 82 82 SW 3 6 30.07 1018 7 11 0.00 0.00
8:52 am 08:52 Mostly Cloudy 80 26.7 72 22.2 76 76 Calm 30.08 1019 7 11 0.00 0.00
9:52 am 09:52 Cloudy 82 27.8 72 22.2 72 72 W 5 7 30.11 1020 7 11 0.00 0.00
10:52 am 10:52 Cloudy 82 27.8 72 22.2 72 72 WSW 6 9 30.13 1020 7 11 0.00 0.00
11:04 am 11:04 Cloudy with Rain 81 27.2 69 20.6 67 67 SW 9 15 30.12 1020 3 5 0.01 0.25
11:28 am 11:28 Cloudy with Light Rain 81 27.2 74 23.3 79 79 NNW 10 17 30.12 1020 7 11 0.12 3.05
11:52 am 11:52 Cloudy with Thunderstorms 81 27.2 74 23.3 79 79 N 9 15 30.13 1020 7 11 0.12 3.05
11:57 am 11:57 Cloudy with Strong Thunderstorms 79 26.1 73 22.8 82 82 N 9 15 30.13 1020 2 3 0.00 0.00
12:04 pm 12:04 Cloudy with Strong Thunderstorms 77 25 73 22.8 88 88 WNW 18 30 30.14 1021 1 1 0.08 2.03
12:11 pm 12:11 Cloudy with Strong Thunderstorms 74 23.3 71 21.7 91 91 NE 5 7 30.14 1021 1 1 0.43 10.92
12:15 pm 12:15 Cloudy with Thunderstorms 74 23.3 70 21.1 88 88 E 3 6 30.13 1020 6 10 0.54 13.72
12:25 pm 12:25 Cloudy with Thunderstorms 76 24.4 72 22.2 88 88 Calm 30.11 1020 7 11 0.62 15.75
12:30 pm 12:30 Cloudy with Nearby Thunderstorms 77 25 72 22.2 85 85 Calm 30.10 1019 7 11 0.62 15.75
12:49 pm 12:49 Mostly Cloudy with Thunderstorms 77 25 72 22 83 83 SW 5 7 30.12 1020 9 14 0.62 15.75
12:52 pm 12:52 Mostly Cloudy with Nearby Thunderstorms 77 25 72 22.2 85 85 SSW 3 6 30.12 1020 8 13 0.62 15.75
1:00 pm 13:00 Cloudy with Light Rain 77 25 72 22.2 85 85 WSW 3 6 30.11 1020 9 14 0.00 0.00
1:52 pm 13:52 Cloudy 78 25.6 72 22.2 82 82 SE 3 6 30.11 1020 8 13 0.00 0.00
2:52 pm 14:52 Cloudy 82 27.8 73 22.8 74 74 Calm 30.09 1019 8 13 0.00 0.00
3:52 pm 15:52 Cloudy 83 28.3 73 22.8 72 72 Calm 30.09 1019 8 13 0.00 0.00
4:52 pm 16:52 Cloudy 84 28.9 75 23.9 74 74 SE 6 9 30.08 1019 7 11 0.00 0.00
5:52 pm 17:52 Cloudy 83 28.3 74 23.3 74 74 S 9 15 30.08 1019 7 11 0.00 0.00
6:04 pm 18:04 Cloudy with Heavy Rain 81 27.2 75 23.9 82 82 WSW 5 7 30.07 1018 3 4 0.02 0.51
6:09 pm 18:09 Cloudy with Rain 79 26.1 71 21.7 77 77 W 6 9 30.08 1019 4 6 0.17 4.32
6:30 pm 18:30 Cloudy with Light Rain 84 28.9 67 19.4 57 57 Calm 30.06 1018 9 14 0.30 7.62
6:52 pm 18:52 Mostly Cloudy 84 28.9 69 20.6 61 61 W 3 6 30.06 1018 10 16 0.30 7.62
7:52 pm 19:52 Mostly Cloudy 79 26.1 72 22.2 79 79 SSW 3 6 30.06 1018 9 14 0.00 0.00
8:52 pm 20:52 Partly Cloudy 77 25 69 20.6 77 77 WSW 5 7 30.05 1018 9 14 0.00 0.00
9:52 pm 21:52 Partly Cloudy 74 23.3 69 20.6 85 85 W 6 9 30.07 1018 10 16 0.00 0.00
10:52 pm 22:52 Mostly Clear 72 22.2 68 20 87 87 S 5 7 30.09 1019 10 16 0.00 0.00
11:52 pm 23:52 Clear 72 22.2 67 19.4 84 84 S 5 7 30.11 1020 10 16 0.00 0.00

Powered by AerisWeather